Regional Weather Roundup
Issued by NWS Cleveland, OH

Home | Current Version | Previous Version | Graphics & Text | Print | Product List | Glossary On
Versions: 1 2 3 4 5 6 7 8 9 10 11 12 13 14 15 16 17 18 19 20 21 22 23 24 25 26 27 28 29 30 31 32 33 34 35 36 37 38 39 40 41 42 43 44 45 46 47 48 49 50
000
ASUS41 KCLE 171110
RWRCLE
OHIO REGIONAL WEATHER ROUNDUP
NATIONAL WEATHER SERVICE CLEVELAND, OH
700 AM EDT THU AUG 17 2017

NOTE: "FAIR" INDICATES FEW OR NO CLOUDS BELOW 12,000 FEET WITH NO
SIGNIFICANT WEATHER AND/OR OBSTRUCTIONS TO VISIBILITY.

OHZ001>008-015>018-024>027-034-035-043-044-171200-
   NORTHWEST OHIO

CITY           SKY/WX    TMP DP  RH WIND       PRES   REMARKS
DEFIANCE       CLOUDY    72  70  93 S6        29.89F
FINDLAY        MOCLDY    74  69  85 S9        29.90F
TOLEDO EXPRESS CLOUDY    68  68 100 CALM      29.89S
TOLEDO EXEC    CLOUDY    72  70  93 CALM      29.90S
LIMA           LGT RAIN  74  72  93 S7        29.93R
$$

OHZ009>014-019>023-028>033-038-089-171200-
   NORTHEAST OHIO

CITY           SKY/WX    TMP DP  RH WIND       PRES   REMARKS
CLE-HOPKINS    CLOUDY    73  63  70 S9        29.97R
CLE-LAKEFRONT  CLOUDY    73  59  61 S12       29.94R
CUY CO. ARPT   NOT AVBL
LORAIN-ELYRIA  PTCLDY    69  60  73 S8        29.96R
ASHTABULA      PTCLDY    64  59  83 SE5       30.01S
AKRON-CANTON   PTCLDY    69  61  75 SE7       30.00R
WOOSTER        CLEAR     63  62  97 CALM      29.99R
MANSFIELD      CLOUDY    71  68  90 S8        29.98R
YOUNGSTOWN     MOCLDY    64  58  80 SE9       30.01R
$$

OHZ042-051>053-060>062-070>072-077>081-171200-
  SOUTHWEST OHIO

CITY           SKY/WX    TMP DP  RH WIND       PRES   REMARKS
CINC-COVINGTON PTCLDY    74  73  97 S8        29.96R
CINC-LUNKEN    MOCLDY    73  72  96 CALM      29.95S
HAMILTON       CLEAR     73  72  96 CALM      29.96R
DAYTON         CLOUDY    73  71  93 SE7       29.96S
WRIGHT-PAT AFB MOCLDY    73  73 100 SE5       29.96R
DAYTON GENERAL CLOUDY    73  70  90 S8        29.95S
WILMINGTON     CLOUDY    72  72 100 S7        29.98R
$$

OHZ036-037-039>041-045>050-054>059-063>069-073>076-082>088-171200-
  CENTRAL AND SOUTHEAST OHIO

CITY           SKY/WX    TMP DP  RH WIND       PRES   REMARKS
COLUMBUS       MOCLDY    74  72  93 S6        29.97R
OSU AIRPORT    CLEAR     74  73  97 S8        29.97R
BOLTON FIELD   NOT AVBL
RICKENBACK AFB CLEAR     70  70 100 S3        29.97R
NEWARK         CLEAR     68  67  96 CALM      29.98R FOG
MARION         CLOUDY    72  69  90 S9        29.96R FOG
LANCASTER      CLEAR     71  70  96 SE6       29.99R FOG
ZANESVILLE     CLEAR     69  67  93 SE3       30.00R FOG
NEW PHILLY     NOT AVBL
$$




USA.gov is the U.S. government's official web portal to all federal, state and local government web resources and services.